x

East Bahamas - 335 Nm East Of San Salvador Is, Bahamas (41046) Wave Buoy

7:50am - Tue 29th Jul 2014 All times are UTC.

  • Sig Wave height 3.3ft
  • Swell Direction
  • Peak Period 8s
  • Average Period 6s
  • Wind
    9mph, 11mph gusts
  • Sea Temp 84°f
  • Air Temp 80°f
  • Sea Pressure 1017.3mb

More Historic Weather Station data

Upgrade to MSW Pro to gain access to the past 30 days of data for over 8000 Wavebouys and Weather Stations around the globe.

Join Pro

Comparision Forecast

View Surf forecast
   
Tue 07/29 7:50am 3.5ft 8s 6s 9 11 mph 1017.3mb 84f 80f
6:50am 3.5ft 9s 6s 11 16 mph 1017.4mb 84f 79f
5:50am 3ft 8s 6s 9 11 mph 1017.6mb 84f 81f
4:50am 3ft 9s 7s 9 11 mph 1018.3mb 84f 81f
3:50am 3ft 8s 7s 7 9 mph 1019.1mb 84f 80f
2:50am 3ft 8s 7s 7 9 mph 1019.6mb 84f 80f
1:50am 3ft 8s 6s 7 9 mph 1019.8mb 84f 80f
12:50am 3ft 9s 7s 7 9 mph 1019.7mb 84f 80f
Mon 07/28 11:50pm 3ft 9s 7s 4 7 mph 1019.5mb 84f 79f
10:50pm 3ft 8s 6s 2 4 mph 1019.2mb 84f 79f
9:50pm 3.5ft 8s 6s 2 4 mph 1019.1mb 84f 79f
8:50pm 3.5ft 8s 6s 2 4 mph 1018.9mb 84f 78f
7:50pm 3.5ft 8s 6s 2 4 mph 1019mb 84f 77f
6:50pm 3.5ft 8s 6s 2
mph
1019.5mb 84f 76f
5:50pm 4ft 8s 5s 9 11 mph 1020.6mb 84f 75f
4:50pm 4ft 8s 6s 18 22 mph 1021mb 84f 75f
3:50pm 4ft 8s 6s 7 9 mph 1020.1mb 84f 83f
2:50pm 4ft 8s 6s 11
mph
1020mb 84f 82f
1:50pm 3.5ft 9s 6s 9 11 mph 1019.9mb 84f 83f
12:50pm 3.5ft 8s 6s 11 13 mph 1019.6mb 84f 83f
11:50am 3.5ft 8s 6s 9 13 mph 1019.5mb 84f 83f
10:50am 4ft 9s 6s 9 11 mph 1019.1mb 84f 83f
9:50am 4.5ft 9s 6s 11 13 mph 1018.8mb 84f 82f
8:50am 4.5ft 9s 6s 11 13 mph 1018.5mb 84f 82f
7:50am 4.5ft 8s 6s 11 13 mph 1018.7mb 84f 82f
6:50am 4.5ft 9s 6s 11 13 mph 1018.9mb 84f 82f
5:50am 4.5ft 9s 6s 11 13 mph 1019.4mb 84f 82f
4:50am 4.5ft 8s 6s 11 13 mph 1020.1mb 84f 83f
3:50am 4.5ft 8s 6s 11 13 mph 1020.7mb 84f 83f
2:50am 4ft 8s 6s 11 13 mph 1020.8mb 84f 83f
1:50am 4.5ft 9s 6s 11 13 mph 1020.9mb 84f 83f
12:50am 4ft 8s 6s 11 13 mph 1020.7mb 84f 83f
Sun 07/27 11:50pm 4.5ft 8s 6s 9 11 mph 1020.2mb 85f 83f
10:50pm 4.5ft 8s 6s 9 11 mph 1019.8mb 85f 83f
9:50pm 4ft 8s 6s 9 11 mph 1019.4mb 85f 84f
8:50pm 4.5ft 8s 6s 11 13 mph 1019.2mb 85f 84f
7:50pm 4.5ft 9s 6s 9 11 mph 1019.4mb 85f 84f
6:50pm 4.5ft 8s 6s 9 11 mph 1019.6mb 85f 83f
5:50pm 4.5ft 8s 6s 9 11 mph 1020mb 85f 83f
4:50pm 4ft 8s 6s 11 13 mph 1020.1mb 84f 83f
3:50pm 4.5ft 8s 6s 11
mph
1020.1mb 84f 83f
2:50pm 4ft 7s 6s 11 13 mph 1020.3mb 84f 83f
1:50pm 4ft 7s 6s 11 13 mph 1020.1mb 84f 83f
12:50pm 4.5ft 8s 6s 11 13 mph 1020mb 84f 83f
11:50am 4ft 8s 6s 11 13 mph 1019.4mb 84f 83f
10:50am 4ft 8s 5s 11 13 mph 1019.3mb 84f 83f
9:50am 4ft 7s 6s 13 16 mph 1018.8mb 84f 83f
8:50am 4ft 8s 6s 13 16 mph 1019mb 84f 83f
7:50am 4ft 8s 6s 13 16 mph 1018.9mb 84f 83f
6:50am 4.5ft 8s 6s 11 13 mph 1019.3mb 84f 83f
5:50am 4ft 8s 6s 11 13 mph 1019.8mb 84f 83f
4:50am 4.5ft 8s 6s 11 13 mph 1020.4mb 84f 83f
3:50am 4.5ft 8s 6s 9 11 mph 1020.9mb 84f 83f
2:50am 4.5ft 8s 6s 9 11 mph 1020.9mb 84f 83f
1:50am 4.5ft 8s 6s 9 11 mph 1020.6mb 84f 83f
12:50am 4.5ft 8s 6s 9 11 mph 1020.3mb 84f 83f
Sat 07/26 11:50pm 4.5ft 8s 6s 11
mph
1019.5mb 84f 83f
10:50pm 4.5ft 9s 6s 11 13 mph 1019mb 84f 83f
9:50pm 5ft 8s 6s 9 11 mph 1018.7mb 84f 83f
8:50pm 5ft 9s 6s 11 13 mph 1018.6mb 84f 84f
7:50pm 5ft 9s 6s 11 13 mph 1019mb 84f 84f
6:50pm 4.5ft 9s 6s 13 16 mph 1019.3mb 84f 84f
5:50pm 4.5ft 8s 6s 13
mph
1019.8mb 84f 83f
4:50pm 4.5ft 9s 6s 13 16 mph 1020.3mb 84f 83f
3:50pm 4.5ft 8s 6s 11 13 mph 1020.7mb 84f 83f
2:50pm 4.5ft 8s 6s 13 16 mph 1020.4mb 84f 83f
1:50pm 4.5ft 9s 6s 11 13 mph 1020.3mb 84f 83f
12:50pm 5ft 8s 6s 11 16 mph 1020.2mb 84f 83f
11:50am 5ft 9s 6s 13 16 mph 1019.9mb 84f 83f
10:50am 5ft 8s 6s 13 16 mph 1019.6mb 84f 83f
9:50am 5ft 9s 6s 13 18 mph 1018.9mb 84f 83f
8:50am 4.5ft 10s 6s 16 18 mph 1018.5mb 84f 82f
7:50am 5ft 10s 6s 13 16 mph 1018.5mb 84f 82f
6:50am 5ft 10s 6s 13 16 mph 1018.9mb 84f 82f
5:50am 5ft 10s 6s 13 16 mph 1019.5mb 84f 82f
4:50am 5ft 8s 6s 13 16 mph 1020.2mb 84f 83f
3:50am 5ft 9s 6s 13 18 mph 1020.5mb 84f 83f
2:50am 5ft 7s 6s 11 16 mph 1020.7mb 84f 83f
1:50am 5ft 9s 6s 13 16 mph 1020.6mb 84f 83f
Fri 07/25 11:50pm 4.5ft 8s 6s 16 18 mph 1019.7mb 84f 83f
10:50pm 4.5ft 8s 5s 16 18 mph 1019.1mb 84f 83f
9:50pm 4.5ft 8s 5s 16 18 mph 1018.7mb 84f 83f
8:50pm 5ft 8s 5s 13 18 mph 1018.8mb 84f 83f
7:50pm 5ft 8s 6s 16 20 mph 1019.1mb 84f 83f
6:50pm 4.5ft 8s 5s 13 16 mph 1019.8mb 84f 83f
5:50pm 4.5ft 8s 5s 13 16 mph 1020.6mb 84f 83f
4:50pm 4ft 8s 5s 13 16 mph 1020.9mb 84f 83f
3:50pm 4.5ft 8s 6s 11 16 mph 1021.5mb 84f 83f
2:50pm 4ft 8s 6s 11 16 mph 1021.7mb 84f 83f
1:50pm 4ft 8s 5s 11 13 mph 1021.4mb 84f 83f
12:50pm 4.5ft 8s 5s 9 11 mph 1021.2mb 84f 83f
11:50am 4ft 8s 5s 11 13 mph 1020.9mb 84f 83f
10:50am 4ft 8s 5s 13 16 mph 1019.9mb 84f 83f
9:50am 4ft 8s 5s 16 18 mph 1019.5mb 84f 82f
8:50am 4ft 8s 5s 13 18 mph 1019mb 84f 82f